AO-07 1 07530U 74089B 17361.90767450 -.00000026 00000-0 11474-3 0 9998 2 07530 101.6617 326.9780 0011969 308.2392 65.6890 12.53630436973137 UO-11 1 14781U 84021B 17362.69897738 .00000109 00000-0 19659-4 0 9996 2 14781 97.6726 40.9704 0007072 284.7226 75.3204 14.82969145819177 LO-19 1 20442U 90005G 17362.41086754 -.00000006 00000-0 14009-4 0 9995 2 20442 98.5946 297.1033 0010794 297.3286 62.6799 14.32882576459438 HUBBLE 1 20580U 90037B 17361.89769397 .00000518 00000-0 20818-4 0 9997 2 20580 28.4683 167.3511 0002852 96.5507 56.1555 15.08952450319572 MET-2/21 1 22782U 93055A 17361.79752211 -.00000001 00000-0 -13789-4 0 9990 2 22782 82.5488 229.9330 0021230 247.0881 163.3257 13.83805804228474 AO-27 1 22825U 93061C 17361.86790450 .00000021 00000-0 26072-4 0 9999 2 22825 98.8401 330.0957 0009263 122.3721 237.8358 14.30017730265089 IO-26 1 22826U 93061D 17362.90367466 .00000008 00000-0 20696-4 0 9994 2 22826 98.8344 331.2061 0009901 110.7239 249.5005 14.30348274265415 FO-29 1 24278U 96046B 17361.82553104 -.00000017 00000-0 18971-4 0 9993 2 24278 098.5325 219.0331 0350068 195.2983 163.7355 13.53080546054818 NOAA-15 1 25338U 98030A 17362.52931085 .00000046 00000-0 38060-4 0 9994 2 25338 98.7772 13.7801 0010653 8.4393 351.6964 14.25832755 20698 GO-32 1 25397U 98043D 17361.82410758 -.00000005 00000-0 16639-4 0 9998 2 25397 98.6323 300.2646 0001957 125.6673 234.4688 14.23636843 11346 ISS 1 25544U 98067A 17362.89205058 .00001826 00000-0 34694-4 0 9993 2 25544 51.6415 147.6831 0002715 306.5282 189.8181 15.54227835 92037 NO-44 1 26931U 01043C 17362.19917139 -.00000024 00000-0 22448-4 0 9999 2 26931 67.0521 310.6064 0005222 272.7635 87.2869 14.30488785848094 SO-50 1 27607U 02058C 17362.20238625 .00000035 00000-0 25669-4 0 9994 2 27607 64.5552 252.6482 0044309 12.1352 348.0807 14.75407018807736 CO-55 1 27844U 03031E 17362.55071759 .00000078 00000-0 55099-4 0 9997 2 27844 98.6885 8.7167 0010433 140.8697 219.3236 14.22085194751944 CO-57 1 27848U 03031J 17362.81466220 .00000064 00000-0 48866-4 0 9990 2 27848 98.6975 9.3143 0010191 149.3763 210.8011 14.21693309751857 RS-22 1 27939U 03042A 17362.84294311 .00000117 00000-0 29487-4 0 9993 2 27939 97.9647 141.6529 0012271 334.0402 188.2707 14.66643890761847 NOAA-18 1 28654U 05018A 17362.51860739 .00000027 00000-0 39760-4 0 9995 2 28654 99.1659 29.3223 0013561 244.8964 115.0800 14.12362136649687 CO-58 1 28895U 05043F 17362.21622404 .00000192 00000-0 45802-4 0 9999 2 28895 97.8847 155.8476 0015648 248.1422 111.8117 14.63491522648869 Falconsat-3 1 30776U 07006E 17361.92135573 .00003065 00000-0 93364-4 0 9992 2 30776 035.4362 276.3401 0004157 278.0928 081.9326 15.33675458598002 CO-65 1 32785U 08021C 17362.52155326 .00000296 00000-0 37882-4 0 9993 2 32785 97.5546 17.7935 0011789 241.2666 118.7367 14.88036258523792 AAUSAT2 1 32788U 08021F 17362.53002076 .00000296 00000-0 32722-4 0 9998 2 32788 97.5395 31.0004 0011538 193.5165 166.5749 14.94169399524693 DO-64 1 32789U 08021G 17362.40339658 .00001131 00000-0 82454-4 0 9990 2 32789 97.5361 56.3704 0013364 154.4012 205.7880 15.05629639526088 CO-66 1 32791U 08021J 17362.55077429 .00000498 00000-0 56471-4 0 9999 2 32791 97.5479 22.7582 0012450 222.0014 138.0251 14.90431190524096 RS-30 1 32953U 08025A 17362.81467094 .00000007 00000-0 -21432-4 0 9999 2 32953 82.5035 118.6405 0019026 218.7181 141.2536 12.43080753435601 PRISM 1 33493U 09002B 17362.68978830 .00000053 00000-0 10356-4 0 9998 2 33493 98.1453 253.0850 0015194 154.6973 205.5001 14.96014373484852 NOAA-19 1 33591U 09005A 17362.53963071 .00000091 00000-0 74681-4 0 9998 2 33591 99.1202 332.3850 0014958 86.1652 274.1229 14.12241188458090 TISAT-1 1 36799U 10035E 17362.82697421 .00000526 00000-0 59636-4 0 9997 2 36799 98.0836 129.8124 0013321 52.3253 307.9170 14.90652817404779 JUGNU 1 37839U 11058B 17362.34292712 .00000294 00000-0 14871-4 0 9994 2 37839 19.9627 353.2068 0019075 162.8907 327.5158 14.12605152321181 SRMSAT 1 37841U 11058D 17361.48259600 .00000276 00000-0 64858-5 0 9991 2 37841 19.9731 44.0834 0012052 45.1628 95.1211 14.10594979320603 AO-71 1 37854U 11061E 17362.51249327 .00000850 00000-0 52792-4 0 9990 2 37854 101.7076 335.0656 0164878 219.3985 139.5140 15.04973373336153 HRBE 1 37855U 11061F 17361.85770206 .00001738 00000-0 97138-4 0 9991 2 37855 101.7202 331.7475 0177907 229.0785 129.4906 15.03945912335895 ALMASAT-1 1 38078U 12006B 17362.90721213 .00040007 40546-5 38807-3 0 9993 2 38078 69.4361 324.8115 0272830 1.4882 29.2952 15.32016371314507 HORYU-2 1 38340U 12025D 17362.59138250 .00000284 00000-0 49862-4 0 9997 2 38340 98.3752 13.3749 0012315 38.7808 321.4282 14.75474425301950 RS-40 1 38735U 12041C 17362.57870112 .00000028 00000-0 13083-3 0 9992 2 38735 82.4742 202.9816 0016641 327.4365 32.5687 12.42576063245830 BEESAT-3 1 39134U 13015E 17362.87029887 .00001591 00000-0 85317-4 0 9992 2 39134 64.8656 317.6444 0029612 232.9847 126.8570 15.18671337259031 BEESAT-2 1 39136U 13015G 17362.19899517 .00001678 00000-0 96749-4 0 9991 2 39136 64.8704 333.3265 0032326 255.2773 104.4769 15.15762951258676 ZACUBE-1 1 39417U 13066B 17362.63736114 .00000279 00000-0 41671-4 0 9991 2 39417 97.6072 35.2074 0058980 355.1579 4.9057 14.80849956221557 TRITON-1 1 39427U 13066M 17362.51367932 .00000273 00000-0 51327-4 0 9990 2 39427 97.6363 4.8281 0115614 86.2728 275.1689 14.67588107219541 GOMX-1 1 39430U 13066Q 17362.88415008 .00000225 00000-0 49393-4 0 9999 2 39430 97.6793 347.2254 0152395 147.7605 213.3025 14.58996248218322 LO-74 1 39440U 13066AA 17362.12637359 .00000326 00000-0 52351-4 0 9992 2 39440 97.6123 22.4384 0081321 31.9390 328.6713 14.75587320220694 AO-73 1 39444U 13066AE 17362.85681728 .00000338 00000-0 48282-4 0 9996 2 39444 97.6086 36.7221 0058001 350.4504 9.5602 14.81611039220435 SPROUT 1 39770U 14029E 17362.84606275 .00000676 00000-0 82298-4 0 9991 2 39770 97.8756 100.4021 0010328 54.0554 306.1631 14.86604595195053 DUCHIFAT-1 1 40021U 14033M 17362.71212803 .00000637 00000-0 71616-4 0 9992 2 40021 97.9171 276.1253 0013723 25.8048 334.3851 14.90152459191561 NANOSATCBR1 1 40024U 14033Q 17362.19985409 .00000461 00000-0 54349-4 0 9995 2 40024 97.9118 274.1770 0013055 29.4050 330.7899 14.89438328191425 EO-79 1 40025U 14033R 17361.81470985 .00000397 00000-0 48660-4 0 9999 2 40025 97.9089 272.5305 0013360 34.0625 326.1446 14.88604625191294 DTUSAT-2 1 40030U 14033W 17362.74353158 .00000330 00000-0 41834-4 0 9993 2 40030 97.9045 272.3608 0012641 26.5331 333.6530 14.88219375191388 EO-80 1 40032U 14033Y 17362.18903785 .00000368 00000-0 46000-4 0 9991 2 40032 97.9052 271.8123 0012631 28.6605 331.5303 14.88154726191293 ANTELSAT 1 40034U 14033AA 17362.53085487 .00000306 00000-0 53051-4 0 9998 2 40034 97.8334 240.1503 0059695 28.7449 331.7028 14.73836449189551 VELOX-1 1 40057U 14034E 17362.83597666 .00000408 00000-0 64995-4 0 9996 2 40057 98.1955 106.0881 0011843 148.7121 211.4788 14.77310813188496 DAURIA DX 1 1 40071U 14037C 17362.83918484 .00000171 00000-0 29455-4 0 9999 2 40071 98.3546 121.8596 0009243 140.3823 219.8074 14.81107009187783 UKUBE-1 1 40074U 14037F 17362.66915875 .00000362 00000-0 50931-4 0 9999 2 40074 98.3655 126.5846 0005466 133.2018 226.9655 14.83687508188017 HODOYOSHI-1 1 40299U 14070B 17362.80931703 .00000919 00000-0 42371-4 0 9996 2 40299 97.3908 82.5125 0014489 124.5445 351.2649 15.22668921174550 CHUBUSAT-1 1 40300U 14070C 17362.81927507 .00001055 00000-0 49951-4 0 9990 2 40300 97.3811 79.0438 0021501 135.9502 341.1178 15.21317088174376 QSAT-EOS 1 40301U 14070D 17362.79498421 .00002454 00000-0 10263-3 0 9993 2 40301 97.3748 79.6701 0028037 130.1269 344.8917 15.24183767174462 FIREBIRD FU3 1 40377U 15003B 17361.87505702 .00002205 00000-0 94366-4 0 9993 2 40377 099.1069 224.5386 0134140 080.0828 281.5511 15.16517066160341 FIREBIRD FU4 1 40378U 15003C 17362.85482942 .00001959 00000-0 84251-4 0 9990 2 40378 99.1072 225.7632 0134367 76.7462 284.8713 15.16533146160505 GRIFEX 1 40379U 15003D 17362.83886502 .00001479 00000-0 68794-4 0 9990 2 40379 99.1106 222.6840 0140856 86.8767 274.8565 15.13821399160322 NO-84 1 40654U 15025D 17362.50448793 .00007378 00000-0 12872-3 0 01801 2 40654 054.9928 085.6486 0169090 037.1767 324.0848 15.37666504029565 NO-83 1 40655U 15025E 17362.41681915 .00016689 00000-0 20725-3 0 02090 2 40655 054.9795 046.6478 0128985 060.0898 301.2787 15.50793860029733 DEORBITSAIL 1 40719U 15032E 17362.66242700 .00000485 00000-0 77301-4 0 9997 2 40719 97.9618 253.7759 0015284 235.7430 124.2333 14.76289005133013 NUDT-PHONESAT 1 40900U 15049B 17362.84268016 .00002707 00000-0 12653-3 0 9992 2 40900 97.4426 8.1468 0012005 265.0413 94.9452 15.20591693126028 XW-2A 1 40903U 15049E 17362.82372164 .00002353 00000-0 61351-4 0 9990 2 40903 97.4044 30.8614 0012767 286.9925 72.9921 15.39826739127588 XW-2C 1 40906U 15049H 17362.85509362 .00000867 00000-0 49950-4 0 9997 2 40906 97.4573 4.5306 0013527 259.3959 100.5750 15.14949625125703 XW-2D 1 40907U 15049J 17362.82350150 .00000914 00000-0 52290-4 0 9998 2 40907 97.4545 4.2206 0012886 257.2480 102.7312 15.15082608125700 LILACSAT-2 1 40908U 15049K 17362.89509089 .00000508 00000-0 32103-4 0 9993 2 40908 97.4652 3.8611 0014502 257.0525 102.9087 15.13367324125610 XW-2F 1 40910U 15049M 17362.83339785 .00001351 00000-0 73339-4 0 9997 2 40910 97.4556 5.2402 0013678 253.5343 106.4386 15.16157607125639 XW-2B 1 40911U 15049N 17362.90113461 .00000889 00000-0 51005-4 0 9998 2 40911 97.4584 4.7657 0012800 257.4470 102.5330 15.15033529125616 DCBB 1 40912U 15049P 17362.82159814 .00001758 00000-0 88797-4 0 9996 2 40912 97.4510 7.6137 0013777 242.1678 236.9515 15.18332031125818 TW-1C 1 40926U 15051B 17362.83040000 .00010065 00000-0 20494-3 0 9991 2 40926 97.2068 41.0777 0010614 170.8073 244.1640 15.46392813126966 TW-1A 1 40928U 15051D 17362.83061539 .00003910 00000-0 10768-3 0 9997 2 40928 97.2064 35.1021 0010949 209.3663 236.5016 15.37685742126591 IO-86 1 40931U 15052B 17362.64234329 .00000659 00000-0 28734-5 0 9991 2 40931 5.9996 286.2053 0012327 113.4552 246.7054 14.76560114121758 LQSat 1 40958U 15057A 17362.73236639 .00000044 00000-0 14597-4 0 9990 2 40958 97.9598 74.4623 0018583 158.8010 201.3971 14.73009352119759 AO-85 1 40967U 15058D 17362.48700761 .00000355 00000-0 57818-4 0 01939 2 40967 064.7779 349.3991 0188312 008.4232 351.9956 14.75603239028466 ATHENOXAT-1 1 41168U 15077C 17362.75839434 .00002515 00000-0 10263-3 0 9990 2 41168 14.9848 187.2589 0012102 196.2540 261.0930 15.12338096112530 ChubuSat-2 1 41338U 16012B 17361.95462648 .00000429 00000-0 26860-4 0 9992 2 41338 031.0044 321.4957 0013952 178.0212 182.0480 14.99896203102103 ChubuSat-3 1 41339U 16012C 17362.65550714 .00000380 00000-0 22923-4 0 9995 2 41339 31.0106 315.8873 0013802 191.7239 168.3076 15.00089825102196 Horyu-4 1 41340U 16012D 17361.93981044 .00000644 00000-0 42664-4 0 9998 2 41340 031.0063 316.5280 0014249 195.1747 164.8462 15.00846247102142 OUFTI-1 1 41458U 16025C 17362.83037685 .00001862 00000-0 10176-3 0 9990 2 41458 98.1594 51.4226 0171232 359.0452 1.0437 15.04095971 91820 e-st@r-II 1 41459U 16025D 17362.80931812 .00002027 00000-0 11073-3 0 9994 2 41459 98.1623 51.3026 0172084 359.7091 0.3973 15.03877592 91815 AAUSAT4 1 41460U 16025E 17362.80494016 .00002779 00000-0 14904-3 0 9996 2 41460 98.1558 51.5641 0163885 356.9479 3.0712 15.05100185 91851 LO-87 1 41557U 16033B 17362.78032293 .00001622 00000-0 62239-4 0 9995 2 41557 97.4500 82.2447 0015019 45.2865 314.9595 15.27867860 88138 NuSat2 1 41558U 16033C 17362.76936263 .00001668 00000-0 64260-4 0 9990 2 41558 97.4528 82.3086 0014444 44.3601 315.8792 15.27698288 88122 Lapan A3 1 41603U 16040E 17362.78554949 .00000140 00000-0 98013-5 0 9996 2 41603 97.4372 62.1720 0015058 111.7441 356.7393 15.19489257 84205 Swayam 1 41607U 16040J 17362.83716469 .00001854 00000-0 84799-4 0 9991 2 41607 97.4375 63.0382 0015533 113.6285 246.6583 15.21693297 84191 Pratham 1 41783U 16059A 17362.14282956 .00000058 00000-0 20796-4 0 9991 2 41783 98.1430 61.2503 0032334 272.5523 87.1977 14.62890359 66950 AlSat 1N 1 41789U 16059G 17362.72198914 .00000129 00000-0 33705-4 0 9994 2 41789 98.1432 62.7034 0026914 263.9086 95.9050 14.64114895 67077 ScatSat 1 41790U 16059H 17361.72789881 .00000021 00000-0 16585-4 0 9992 2 41790 98.2855 47.4004 0017097 256.9037 103.0250 14.50854991 66329 TY-1 1 41844U 16066D 17362.77805763 .00001783 00000-0 79240-4 0 9997 2 41844 97.4058 7.0777 0014145 278.2190 199.4192 15.22747958 62944 CAS-2T 1 41845U 16066E 17362.69346607 .00000181 00000-0 37575-4 0 9992 2 41845 98.7666 22.8730 0367023 31.0490 331.1843 14.37845663 59448 Pegasus-1 1 41846U 16066F 17362.49157071 .00000405 00000-0 71682-4 0 9992 2 41846 98.7697 22.3145 0369209 33.5567 328.8425 14.37225225 59386 STARS-C 1 41895U 98067KR 17362.51421591 .00117003 00000-0 50384-3 0 9999 2 41895 51.6325 122.0401 0004653 305.8004 54.2566 15.84137174 58517 TO-89 1 41932U 98067KU 17362.74224324 .00023230 00000-0 21588-3 0 9993 2 41932 51.6374 132.7417 0004333 270.3362 89.7138 15.67300422 53967 AOBA-V3LOX3 1 41935U 98067KX 17362.76699819 .00028117 00000-0 24542-3 0 9995 2 41935 51.6367 131.3885 0003877 272.8981 87.1572 15.68728692 54084 OSNSAT 1 41939U 98067KZ 17362.58561045 .00454759 10311-3 76063-3 0 9997 2 41939 51.6262 113.3739 0007945 324.4819 35.5662 16.02243501 53552 EO-88 1 42017U 17008BX 17362.13865529 .00002209 00000-0 94498-4 0 9999 2 42017 97.4722 63.0604 0004950 257.5862 102.4822 15.23890278 48016 HAVELSAT 1 42700U 98067LH 17362.80403309 .00021479 00000-0 23339-3 0 9995 2 42700 51.6367 140.6337 0004473 325.8404 34.2302 15.63408245 35304 SOMP2 1 42701U 98067LJ 17362.78096515 .00020301 00000-0 22541-3 0 9997 2 42701 51.6363 141.2300 0004486 325.6934 34.3770 15.62893481 35284 Columbia 1 42702U 98067LK 17362.76880119 .00112392 00000-0 62032-3 0 9998 2 42702 51.6305 132.8191 0005383 299.9885 60.0581 15.78787761 35321 PHOENIX 1 42706U 98067LP 17362.76767116 .00019214 00000-0 21421-3 0 9999 2 42706 51.6365 141.1439 0000994 261.3758 98.7123 15.62835268 35200 X-CubeSat 1 42707U 98067LQ 17362.74943414 .00022412 00000-0 24305-3 0 9993 2 42707 51.6348 141.0027 0001219 263.7223 96.3633 15.63436258 35193 qbee 1 42708U 98067LR 17362.76456683 .00020731 00000-0 22789-3 0 9999 2 42708 51.6361 141.1095 0001212 264.7232 95.3625 15.63142438 35159 ZA-AeroSat 1 42713U 98067LU 17362.79773880 .00018078 00000-0 21022-3 0 9999 2 42713 51.6360 142.0898 0002258 243.1117 116.9646 15.61790071 34858 LINK 1 42714U 98067LV 17362.80511841 .00032735 00000-0 32321-3 0 9999 2 42714 51.6337 139.8631 0002705 246.2518 113.8194 15.65591655 34998 UPSat 1 42716U 98067LX 17362.74982443 .00026763 00000-0 27414-3 0 9995 2 42716 51.6360 140.2676 0002967 321.1894 38.8888 15.64776223 35005 SpaceCube 1 42717U 98067LY 17362.84706448 .00020472 00000-0 22602-3 0 9991 2 42717 51.6358 140.9162 0003034 325.6903 34.3895 15.63038557 34240 Hoopoe 1 42718U 98067LZ 17362.79731517 .00025420 00000-0 26939-3 0 9996 2 42718 51.6362 140.5843 0002992 320.6539 39.4238 15.63942599 34247 Challenger 1 42721U 98067MA 17362.80014139 .00039098 00000-0 36242-3 0 9990 2 42721 51.6346 139.0785 0005512 300.5189 59.5263 15.67066087 33962 NJUST-1 1 42722U 98067MB 17362.77858758 .00015559 00000-0 18526-3 0 9991 2 42722 51.6367 142.7115 0005854 309.3087 50.7387 15.61289034 33915 UNSW-EC0 1 42723U 98067MC 17362.83221824 .00024039 00000-0 25492-3 0 9990 2 42723 51.6371 140.8248 0005496 304.9622 55.0856 15.63951336 33928 DUTHsat 1 42724U 98067MD 17362.83412448 .00033666 00000-0 32019-3 0 9994 2 42724 51.6353 139.3213 0004735 301.8219 58.2315 15.66505841 33864 LO-90 1 42725U 98067ME 17362.86944195 .00019799 00000-0 22570-3 0 9999 2 42725 51.6365 141.8211 0004875 309.7780 50.2784 15.62228953 33830 nSIGHT1 1 42726U 98067MF 17362.80021761 .00008840 00000-0 11880-3 0 9996 2 42726 51.6381 144.3697 0005326 317.5694 42.4886 15.58746436 33807 QBITO 1 42728U 98067MH 17362.75075359 .00021269 00000-0 23528-3 0 9996 2 42728 51.6382 141.7990 0002536 309.5677 50.5093 15.62961903 33633 Aalto-2 1 42729U 98067MJ 17362.62018622 .00022182 00000-0 24432-3 0 9993 2 42729 51.6367 142.4092 0002497 307.3649 52.7117 15.63044299 33620 SUSat 1 42730U 98067MK 17362.83721956 .00018748 00000-0 21110-3 0 9992 2 42730 51.6362 141.6019 0002641 307.8125 52.2630 15.62597166 33644 i-INSPIRE II 1 42731U 98067ML 17362.74797820 .00024648 00000-0 25825-3 0 9999 2 42731 51.6354 140.9851 0006275 257.0181 103.0114 15.64236779 33696 PolyITAN-2-SAU 1 42732U 98067MM 17362.86330626 .00022713 00000-0 24788-3 0 9998 2 42732 51.6360 141.0123 0006339 257.4185 102.6101 15.63247840 33700 SNUSAT-1 1 42733U 98067MN 17362.83837574 .00019797 00000-0 22251-3 0 9991 2 42733 51.6362 141.6006 0006304 259.9481 100.0802 15.62586959 33691 ExAlta-1 1 42734U 98067MP 17362.75372374 .00027870 00000-0 29110-3 0 9997 2 42734 51.6349 141.0251 0007219 281.8077 78.2108 15.64234089 33640 Aoxiang-1 1 42735U 98067MQ 17362.76807518 .00016026 00000-0 18949-3 0 9991 2 42735 51.6361 142.6330 0006370 306.2098 53.8306 15.61442488 35048 BeEagleSat 1 42736U 98067MR 17362.67651213 .00017757 00000-0 20476-3 0 9991 2 42736 51.6359 142.7702 0006235 303.6361 56.4038 15.62008619 33723 Atlantis 1 42737U 98067MS 17362.46849205 .00083615 00000-0 55066-3 0 9998 2 42737 51.6301 136.8141 0006469 290.9717 69.0590 15.74906604 33675 CAS-4B 1 42759U 17034B 17362.90966300 .00000414 00000-0 39177-4 0 9994 2 42759 43.0193 297.9533 0007046 122.0863 300.2541 15.09153025 29722 CAS-4A 1 42761U 17034D 17362.82950228 .00000504 00000-0 44674-4 0 9998 2 42761 43.0198 298.2730 0007510 124.7092 274.4559 15.09229307 29708 UCLSat 1 42765U 17036A 17361.89979315 .00001733 00000-0 80314-4 0 9994 2 42765 097.4261 059.3250 0010885 323.0704 036.9782 15.21387102029253 NIUSat 1 42766U 17036B 17362.12598926 .00001385 00000-0 67316-4 0 9997 2 42766 97.4263 59.1842 0014793 305.6349 54.3508 15.20019038 28544 LituanicaSAT 2 1 42768U 17036D 17362.15093922 .00002961 00000-0 13773-3 0 9996 2 42768 97.4271 59.3039 0014688 308.4542 51.5374 15.20646543 28563 Aalto 1 1 42775U 17036L 17362.72691591 .00001065 00000-0 51905-4 0 9997 2 42775 97.4258 59.9027 0012947 304.8012 55.2005 15.20433179 28591 URSA MAIOR 1 42776U 17036M 17362.72116528 .00001114 00000-0 54051-4 0 9990 2 42776 97.4262 59.9177 0012822 305.0542 54.9490 15.20494833 28594 Max Valier Sat 1 42778U 17036P 17361.94699063 .00001365 00000-0 64749-4 0 9998 2 42778 097.4282 059.3113 0011491 314.3414 045.6879 15.20940100028472 Pegasus 1 42784U 17036V 17362.11470934 .00001612 00000-0 75239-4 0 9990 2 42784 97.4263 59.5022 0011407 321.8412 38.2015 15.21225332 28505 NUDATSat 1 42787U 17036Y 17362.41548285 .00002169 00000-0 99044-4 0 9999 2 42787 97.4269 59.8654 0010940 320.9065 39.1379 15.21614958 28399 SUCHAI 1 1 42788U 17036Z 17361.90061355 .00001901 00000-0 87669-4 0 9994 2 42788 097.4264 059.3279 0011055 322.9734 037.0738 15.21422907028540 SKCUBE 1 42789U 17036AA 17361.89777365 .00001758 00000-0 81335-4 0 9992 2 42789 097.4262 059.3291 0010884 323.1169 036.9317 15.21419232028466 VZLUSAT 1 1 42790U 17036AB 17361.88180158 .00002426 00000-0 11035-3 0 9993 2 42790 097.4265 059.3469 0010528 323.5982 036.4537 15.21647258028460 VENTA 1 1 42791U 17036AC 17361.75489738 .00001740 00000-0 80364-4 0 9996 2 42791 097.4262 059.2130 0010526 324.6707 035.3831 15.21490330028436 Robusta 1B 1 42792U 17036AD 17362.14498164 .00001795 00000-0 82687-4 0 9994 2 42792 97.4260 59.6034 0010449 323.6533 36.3992 15.21553724 28517 D-SAT 1 42794U 17036AF 17362.15828888 .00000367 00000-0 37316-4 0 9990 2 42794 97.6179 58.0477 0128525 130.7661 230.4797 14.90749243 28246 BIRD-J 1 42820U 98067MU 17362.84751210 .00017799 00000-0 21116-3 0 9990 2 42820 51.6357 143.1626 0003075 235.3416 124.7288 15.61279341 27197 BIRD-G 1 42821U 98067MV 17362.41245605 .00018710 00000-0 22372-3 0 9999 2 42821 51.6359 145.5073 0003028 236.7248 123.3455 15.61034416 27102 BIRD-M 1 42822U 98067MW 17362.85859425 .00018329 00000-0 21849-3 0 9993 2 42822 51.6361 143.2382 0002999 241.2680 118.8012 15.61131104 27178 BIRD-B 1 42823U 98067MX 17362.47621001 .00018466 00000-0 22002-3 0 9993 2 42823 51.6367 145.1922 0005710 263.6519 96.3825 15.61126990 27112 BIRD-N 1 42824U 98067MY 17362.42060728 .00018502 00000-0 22135-3 0 9990 2 42824 51.6372 145.5761 0005553 263.8324 96.2037 15.61018922 27091 TechnoSat 1 42829U 17042E 17362.81125654 .00000293 00000-0 35194-4 0 9990 2 42829 97.6081 266.4483 0015490 49.9399 310.3176 14.90745580 24957 Mayak 1 42830U 17042F 17362.86151037 .00000843 00000-0 90479-4 0 9999 2 42830 97.6089 266.5482 0015702 46.9359 313.3171 14.91039997 24953 OBJECT MZ 1 42910U 98067MZ 17362.79590147 .00014657 00000-0 18757-3 0 9991 2 42910 51.6355 145.0573 0006353 289.2238 70.8067 15.59439553 20750 OBJECT NA 1 42911U 98067NA 17362.84887902 .00015213 00000-0 19192-3 0 9999 2 42911 51.6365 144.6821 0005977 283.7832 76.2495 15.59786755 20746 OBJECT NB 1 42912U 98067NB 17362.86888777 .00015321 00000-0 19554-3 0 9995 2 42912 51.6360 144.7818 0005262 296.6917 63.3537 15.59474816 20761 OBJECT NC 1 42913U 98067NC 17362.88669489 .00025933 00000-0 29463-3 0 9995 2 42913 51.6353 143.4156 0004262 300.8073 59.2501 15.62138122 20749 OBJECT ND 1 42914U 98067ND 17362.88086350 .00014081 00000-0 18211-3 0 9997 2 42914 51.6367 144.8916 0005208 291.0032 69.0403 15.59204348 20752 QIKCOM-1 1 42983U 98067NF 17362.80493880 .00004527 00000-0 73207-4 0 9996 2 42983 51.6417 147.8423 0003398 283.3971 218.4960 15.55032194 9696 AO-91 1 43017U 17073E 17362.80616727 .00000554 00000-0 48487-4 0 9998 2 43017 97.6952 296.1912 0262031 106.1266 256.8958 14.77814849 5945 EcAMSat 1 43019U 98067NG 17362.84660738 .00005839 00000-0 91642-4 0 9999 2 43019 51.6387 147.6701 0004813 256.3491 103.6964 15.55245368 92027 /EX
